Volver al catálogo

STARLINK-34115

ActivoComunicacionesVLEO
NORAD 63972·PAYLOAD·🇺🇸 United States

Lanzado May 13, 2025 desde Cape Canaveral Space Force Station

Loading…

Próximos Pases (próximas 24 horas)

TLE

ActualizadoSource: CelesTrak SupGP

Época: Sep 14, 2026, 22:40 UTC

1 63972C 25099W   26257.94493056 -.00029733  00000+0 -10768-2 0  2570
2 63972  42.9995 183.7752 0001392 265.5239  46.5851 15.27596318    14

Sigue STARLINK-34115 en tiempo real con AllMySat

Download on the App Store